[[{"header":{"parameterUnit":"m.s-1","parameterCategory":1,"la1":30.2991,"la2":30.254,"lo1":-89.0895,"lo2":-89.0444,"dy":0.0017,"dx":0.0017,"nx":28,"ny":28,"refTime":"2024-03-14T03:00:00:Z","depth":0,"parameterNumber":2,"parameterNumberName":"U-component_of_WINDS"},"data":[0,0,0,0,0,0,0,0,0,0,0,0,0,0,0,0,0,0,0,0,0,0,0,0,0,0,0,0,0,0,0,0,0,0,0,0,0,0,0,0,0,0,0,0,0,0,0,0,0,0,0,0,0,0,0,0,0,0,-4.7744,-4.7745,0,-4.7793,-4.7794,-4.7794,-4.7746,-4.7744,-4.7743,-4.7741,-4.7789,-4.7792,-4.7795,0,0,0,0,0,0,0,0,0,0,0,0,0,-4.7609,-4.7612,-4.7744,-4.7745,-4.7745,-4.7793,-4.7794,-4.7794,-4.7747,-4.7744,-4.7742,-4.774,-4.7788,-4.7792,-4.7795,0,0,0,0,0,0,0,0,0,0,0,0,0,-4.7664,-4.7613,-4.7744,-4.7727,-4.7726,-4.7793,-4.7794,-4.7794,-4.7747,-4.7744,-4.7741,-4.7739,-4.7787,-4.7791,-4.7796,-4.7881,0,0,-4.781,-4.7812,0,0,0,0,0,0,0,0,-4.7661,-4.7669,-4.7729,-4.7729,-4.7728,-4.7761,-4.7764,-4.7823,-4.7748,-4.7739,-4.7741,-4.7737,-4.7782,-4.7787,-4.7802,-4.7883,-4.7885,-4.781,-4.7813,-4.7815,-4.7816,0,0,0,0,0,0,0,-4.7657,-4.7666,-4.7763,-4.773,-4.7729,-4.7717,-4.7722,-4.7775,-4.7776,-4.774,-4.7736,-4.7743,-4.7781,-4.7798,-4.7803,-4.7886,-4.781,-4.7814,-4.7817,-4.7819,-4.804,-4.8043,0,0,0,0,0,0,-4.7655,-4.7663,-4.7762,-4.7765,-4.7687,-4.7722,-4.7727,-4.7753,-4.7775,-4.7776,-4.7745,-4.7741,-4.7791,-4.7797,-4.7804,-4.7905,-4.7815,-4.7819,-4.7822,-4.8037,-4.8041,-4.8044,0,0,0,0,0,0,-4.7652,-4.7664,-4.776,-4.7713,-4.7725,-4.7727,-4.7757,-4.7755,-4.7772,-4.7779,-4.7779,-4.7762,-4.7789,-4.7798,-4.7862,-4.7906,-4.7821,-4.7825,-4.8033,-4.8038,-4.8042,-4.8107,0,0,0,0,0,0,-4.7649,-4.7664,-4.7696,-4.7714,-4.7727,-4.7817,-4.7759,-4.7758,-4.778,-4.7774,-4.7795,-4.7796,-4.7788,-4.7856,-4.7867,-4.7911,-4.7829,-4.8029,-4.8035,-4.8041,-4.8101,-4.8113,-4.8124,0,0,0,0,0,-4.7644,-4.7711,-4.7697,-4.7709,-4.7767,-4.782,-4.7827,-4.7817,-4.7784,-4.7816,-4.7821,-4.7795,-4.79,-4.7863,-4.7875,-4.7921,-4.8026,-4.8034,-4.804,-4.8096,-4.8111,-4.8124,0,0,0,0,0,0,-4.7696,-4.7713,-4.7698,-4.7773,-4.7796,-4.7811,-4.7851,-4.7833,-4.7864,-4.7857,-4.7843,-4.7848,-4.7917,-4.7925,-4.7884,-4.8005,-4.7958,-4.7968,-4.7996,-4.801,-4.8021,-4.8017,-4.7833,0,0,0,0,0,-4.7717,-4.7758,-4.7771,-4.7836,-4.7848,-4.7848,-4.7871,-4.7861,-4.7883,-4.7892,-4.7902,-4.7924,-4.7962,-4.7987,-4.8022,-4.8103,-4.8107,-4.8141,-4.8152,-4.8162,-4.8169,-4.8213,-4.8228,-4.8067,-4.8067,-4.8067,0,0,-4.7758,-4.7773,-4.78,-4.7847,-4.7863,-4.7906,-4.7856,-4.7903,-4.7935,-4.7899,-4.796,-4.7969,-4.7993,-4.8066,-4.8099,-4.8075,-4.8215,-4.8171,-4.8178,-4.8181,-4.8222,-4.8237,-4.8251,-4.8072,-4.8071,-4.807,0,0,-4.7857,-4.7872,-4.7928,-4.7946,-4.7972,-4.7972,-4.7986,-4.8006,-4.801,-4.8072,-4.8046,-4.8084,-4.815,-4.8168,-4.8186,-4.8295,-4.8272,-4.8307,-4.8366,-4.8409,-4.8421,-4.8432,-4.8471,-4.8484,-4.8315,-4.8316,-4.8316,0,-4.7905,-4.7969,-4.7959,-4.8009,-4.8031,-4.8002,-4.8059,-4.8077,-4.8112,-4.8128,-4.8102,-4.8185,-4.8199,-4.8276,-4.8303,-4.8319,-4.8334,-4.8303,-4.8421,-4.8432,-4.8442,-4.8478,-4.8492,-4.8319,-4.8319,-4.8319,-4.8318,0,-4.8027,-4.8072,-4.8115,-4.8151,-4.8178,-4.8231,-4.823,-4.8258,-4.8248,-4.8251,-4.8315,-4.8331,-4.837,-4.8388,-4.8378,-4.8465,-4.8449,-4.8423,-4.8375,-4.8461,-4.8495,-4.8509,-4.8325,-4.8324,-4.8323,-4.8322,0,0,-4.8156,-4.8189,-4.8204,-4.8221,-4.8249,-4.8283,-4.8336,-4.8375,-4.8399,-4.8426,-4.8469,-4.8527,-4.8503,-4.8523,-4.8515,-4.8553,-4.8638,-4.8522,-4.8522,-4.8542,-4.8735,-4.8753,-4.8769,-4.8625,-4.8627,-4.8629,-4.8732,0,-4.8254,-4.8345,-4.8339,-4.8425,-4.8467,-4.8442,-4.8488,-4.851,-4.8516,-4.8552,-4.8558,-4.8599,-4.8564,-4.8576,-4.8613,-4.862,-4.8676,-4.8613,-4.8664,-4.8666,-4.8656,-4.8787,-4.8806,-4.8902,-4.8745,-4.8747,-4.8749,0,-4.8379,-4.8411,-4.8502,-4.8525,-4.8542,-4.8583,-4.8619,-4.8654,-4.868,-4.8681,-4.8706,-4.8692,-4.8746,-4.8699,-4.8773,-4.873,-4.8751,-4.8758,-4.8761,-4.8763,-4.8711,-4.8791,-4.8932,-4.8946,-4.877,-4.8768,-4.8767,0,-4.8462,-4.8529,-4.8591,-4.8607,-4.8635,-4.8665,-4.8678,-4.8701,-4.8725,-4.8757,-4.8773,-4.881,-4.883,-4.886,-4.8857,-4.8824,-4.8932,-4.8885,-4.8934,-4.8934,-4.8955,-4.8953,-4.91,-4.8973,-4.8972,-4.8972,-4.8972,0,-4.8571,-4.8627,-4.8629,-4.8667,-4.873,-4.8724,-4.8785,-4.8796,-4.8817,-4.8856,-4.8838,-4.8876,-4.8871,-4.891,-4.8908,-4.8969,-4.8979,-4.8981,-4.8979,-4.8981,-4.8981,-4.8993,-4.8985,-4.8976,-4.8975,-4.8974,-4.8974,0,-4.8673,-4.8677,-4.8743,-4.8766,-4.8773,-4.8818,-4.8838,-4.8874,-4.888,-4.893,-4.8942,-4.895,-4.8994,-4.8996,-4.9046,-4.9045,-4.9119,-4.9111,-4.9111,-4.9108,-4.9156,-4.9151,-4.9314,-4.9334,-4.9196,-4.9197,-4.9198,0,-4.874,-4.8783,-4.8811,-4.8837,-4.8853,-4.8895,-4.892,-4.8917,-4.8944,-4.8977,-4.901,-4.9053,-4.9087,-4.9159,-4.9169,-4.9208,-4.92,-4.9255,-4.9205,-4.9206,-4.9199,-4.9195,-4.9199,-4.9263,-4.9264,-4.9266,-4.9267,0,-4.886,-4.8861,-4.8898,-4.8937,-4.8968,-4.8998,-4.9026,-4.9048,-4.9049,-4.908,-4.9126,-4.9152,-4.9205,-4.9248,-4.9287,-4.93,-4.9284,-4.9283,-4.9296,-4.9297,-4.9294,-4.9295,-4.9134,-4.9278,-4.9277,-4.9276,-4.9276,-4.9275,-4.8946,-4.8983,-4.9009,-4.9051,-4.9073,-4.91,-4.9136,-4.9146,-4.9185,-4.9228,-4.9224,-4.9275,-4.9301,-4.9351,-4.9369,-4.9408,-4.9389,-4.9408,-4.9413,-4.9417,-4.9422,-4.929,-4.9415,-4.9415,-4.9415,-4.9415,-4.9414,0,-4.9063,-4.9079,-4.9119,-4.9159,-4.9193,-4.9177,-4.9208,-4.9237,-4.9282,-4.9308,-4.9343,-4.9396,-4.9438,-4.9453,-4.9494,-4.9523,-4.9517,-4.9534,-4.9531,-4.9534,-4.9437,-4.9421,-4.9539,-4.9539,-4.9539,-4.9539,-4.9539,-4.9539,-4.9128,-4.9189,-4.9194,-4.9266,-4.9282,-4.9332,-4.9351,-4.9377,-4.9397,-4.9458,-4.9493,-4.9503,-4.9525,-4.9568,-4.9607,-4.961,-4.9625,-4.9645,-4.9645,-4.9554,-4.9541,-4.9529,-4.9513,-4.9649,-4.9649,-4.9739,-4.974,-4.9741]},{"header":{"parameterUnit":"m.s-1","parameterCategory":1,"la1":30.2991,"la2":30.254,"lo1":-89.0895,"lo2":-89.0444,"dy":0.0017,"dx":0.0017,"nx":28,"ny":28,"refTime":"2024-03-14T03:00:00:Z","depth":0,"parameterNumber":3,"parameterNumberName":"V-component_of_WINDS"},"data":[0,0,0,0,0,0,0,0,0,0,0,0,0,0,0,0,0,0,0,0,0,0,0,0,0,0,0,0,0,0,0,0,0,0,0,0,0,0,0,0,0,0,0,0,0,0,0,0,0,0,0,0,0,0,0,0,0,0,2.8612,2.8612,0,2.8626,2.8626,2.8626,2.8615,2.8615,2.8614,2.8614,2.8624,2.8624,2.8625,0,0,0,0,0,0,0,0,0,0,0,0,0,2.8576,2.8577,2.8612,2.8613,2.8613,2.8626,2.8626,2.8626,2.8615,2.8615,2.8614,2.8614,2.8623,2.8624,2.8625,0,0,0,0,0,0,0,0,0,0,0,0,0,2.8591,2.8577,2.8612,2.8609,2.8609,2.8626,2.8626,2.8626,2.8615,2.8615,2.8614,2.8613,2.8623,2.8624,2.8625,2.8645,0,0,2.8628,2.8629,0,0,0,0,0,0,0,0,2.859,2.8592,2.8609,2.8609,2.8609,2.8618,2.8617,2.8633,2.8616,2.8613,2.8614,2.8613,2.8622,2.8623,2.8627,2.8646,2.8646,2.8628,2.8629,2.8629,2.863,0,0,0,0,0,0,0,2.8589,2.8591,2.8618,2.8609,2.8609,2.8606,2.8608,2.862,2.8621,2.8613,2.8612,2.8614,2.8622,2.8626,2.8627,2.8646,2.8628,2.8629,2.863,2.863,2.8686,2.8687,0,0,0,0,0,0,2.8588,2.8591,2.8617,2.8618,2.8598,2.8608,2.8609,2.8616,2.8621,2.8621,2.8615,2.8614,2.8625,2.8626,2.8628,2.8654,2.8629,2.863,2.8631,2.8685,2.8686,2.8687,0,0,0,0,0,0,2.8588,2.8591,2.8617,2.8604,2.8607,2.8609,2.8617,2.8617,2.8621,2.8622,2.8622,2.8619,2.8624,2.8626,2.8642,2.8654,2.8631,2.8632,2.8684,2.8685,2.8687,2.8705,0,0,0,0,0,0,2.8587,2.8591,2.8598,2.8605,2.8608,2.8631,2.8617,2.8617,2.8623,2.8622,2.8626,2.8626,2.8624,2.8641,2.8643,2.8655,2.8633,2.8683,2.8685,2.8686,2.8704,2.8707,2.871,0,0,0,0,0,2.8585,2.8601,2.8599,2.8602,2.8618,2.8632,2.8634,2.8632,2.8624,2.8632,2.8634,2.8626,2.8653,2.8642,2.8645,2.8657,2.8682,2.8684,2.8686,2.8702,2.8707,2.871,0,0,0,0,0,0,2.8593,2.8602,2.8599,2.8617,2.8624,2.863,2.8639,2.8636,2.8644,2.8642,2.8638,2.864,2.8657,2.8659,2.8647,2.8679,2.8666,2.8669,2.8677,2.8682,2.8685,2.8684,2.8633,0,0,0,0,0,2.8598,2.8609,2.8616,2.8631,2.8635,2.8637,2.8643,2.8642,2.8648,2.865,2.8653,2.8659,2.8669,2.8675,2.8684,2.8704,2.8706,2.8714,2.8718,2.872,2.8723,2.8737,2.8741,2.8693,2.8693,2.8693,0,0,2.8605,2.8612,2.8619,2.8633,2.8638,2.8651,2.8639,2.8652,2.8661,2.8652,2.8668,2.8671,2.8677,2.8696,2.8705,2.8698,2.8737,2.8723,2.8725,2.8726,2.8739,2.8744,2.8748,2.8695,2.8695,2.8694,0,0,2.8627,2.8632,2.8648,2.8654,2.8664,2.8666,2.867,2.8677,2.8679,2.8696,2.8691,2.8702,2.8718,2.8724,2.8729,2.8758,2.8753,2.8761,2.8778,2.8792,2.8796,2.8799,2.8812,2.8816,2.8763,2.8763,2.8763,0,2.8635,2.8655,2.8655,2.867,2.8678,2.8673,2.8689,2.8695,2.8706,2.8711,2.8704,2.8728,2.8732,2.8754,2.8762,2.8765,2.8771,2.876,2.8795,2.8799,2.8802,2.8814,2.8818,2.8765,2.8764,2.8764,2.8764,0,2.8666,2.868,2.8691,2.8706,2.8714,2.8729,2.8733,2.8741,2.8741,2.8743,2.8762,2.8768,2.8779,2.8784,2.8782,2.8807,2.8804,2.8796,2.8783,2.8808,2.8819,2.8823,2.8766,2.8766,2.8765,2.8765,0,0,2.8689,2.8708,2.8712,2.872,2.8733,2.8743,2.8759,2.8773,2.8782,2.8791,2.8805,2.8822,2.8817,2.8822,2.8821,2.8833,2.886,2.8825,2.8825,2.8833,2.8891,2.8898,2.8903,2.8856,2.8857,2.8858,2.8892,0,2.8713,2.8743,2.8746,2.8773,2.8787,2.8785,2.88,2.8809,2.8813,2.8826,2.883,2.8843,2.8833,2.8838,2.885,2.8854,2.8872,2.8851,2.887,2.8871,2.887,2.8909,2.8914,2.8946,2.8896,2.8896,2.8897,0,2.8743,2.8757,2.8786,2.8801,2.8807,2.882,2.8836,2.8847,2.8859,2.8862,2.8871,2.8869,2.8887,2.8874,2.8899,2.8886,2.8894,2.8897,2.8899,2.8901,2.8886,2.8913,2.8955,2.8961,2.8904,2.8903,2.8903,0,2.876,2.8786,2.8808,2.8814,2.8831,2.8841,2.8849,2.886,2.887,2.8883,2.8889,2.8903,2.8911,2.8923,2.8925,2.8915,2.8952,2.8938,2.8955,2.8955,2.8962,2.8962,2.9008,2.8966,2.8966,2.8966,2.8965,0,2.8787,2.8805,2.8816,2.8829,2.8851,2.8855,2.8876,2.8883,2.8894,2.8909,2.8907,2.8921,2.8924,2.8939,2.8941,2.8963,2.8966,2.8969,2.8969,2.897,2.897,2.8975,2.8973,2.8967,2.8967,2.8966,2.8966,0,2.8808,2.8816,2.8841,2.8857,2.8861,2.8876,2.889,2.8903,2.8909,2.8929,2.8933,2.8942,2.896,2.8965,2.8984,2.8986,2.9013,2.9011,2.901,2.901,2.9028,2.9027,2.908,2.9088,2.9039,2.904,2.904,0,2.8824,2.8839,2.8859,2.887,2.8879,2.8896,2.8908,2.8913,2.8925,2.8943,2.8954,2.8973,2.8988,2.9017,2.9024,2.9041,2.904,2.9058,2.9042,2.9043,2.9042,2.9042,2.9045,2.906,2.9061,2.9061,2.9061,0,2.8853,2.8858,2.8875,2.8895,2.891,2.8925,2.8939,2.8948,2.8957,2.897,2.899,2.9002,2.9026,2.9045,2.9063,2.907,2.9068,2.9067,2.9072,2.9072,2.9072,2.9075,2.902,2.9065,2.9065,2.9064,2.9064,2.9064,2.8874,2.8888,2.8906,2.8926,2.8939,2.8954,2.8969,2.8979,2.8996,2.9017,2.902,2.9042,2.9057,2.9081,2.909,2.9108,2.9102,2.9109,2.9111,2.9113,2.9116,2.907,2.9111,2.911,2.911,2.911,2.911,0,2.8904,2.8917,2.8935,2.8958,2.8975,2.8975,2.8992,2.9006,2.9026,2.9041,2.9058,2.9083,2.9103,2.9114,2.9134,2.9146,2.9146,2.9151,2.9151,2.9153,2.9118,2.9113,2.9151,2.9151,2.9151,2.9151,2.9151,2.9151,2.8922,2.8948,2.8956,2.8989,2.9001,2.9025,2.9035,2.905,2.9063,2.9092,2.9109,2.9118,2.9132,2.9154,2.9172,2.9175,2.9183,2.919,2.9192,2.9159,2.9155,2.9151,2.9146,2.9191,2.9191,2.9226,2.9226,2.9226]}]]